Location: Karaa?a�
(36.7158°N, 30.4165°E)
Time: 08:21:01
(UTC+00:00)

FREGAT/IRIS - Pass Details

Date: 09 April 2020
Orbit: 326 x 332 km, 96.9° (Epoch: 31 May)

Event Time Altitude Azimuth Distance (km) Brightness Sun altitude
Exits shadow 17:31:29 17° 159° (SSE) 942 4.1 -13.1°
Maximum altitude 17:33:24 68° 77° (ENE) 370 2.2 -13.5°
Drops below altitude 10° 17:36:08 10° 354° (N) 1,294 5.6 -14.0°
Sets 17:38:03 0° 352° (N) 2,141 6.8 -14.3°
